EW8053 Weather Reports


time (UTC)temp
C
wind
direction
speed
KPH
gust
KPH
rain 1hr
cm
rain 24hr
cm
rain mn
cm
humidity
%
barometer
mb
20260507023058 5 0 0.0 0.0 0.00 1.37 0.99 87 1015.0
20260507021558 5 0 0.0 0.0 0.00 1.37 0.99 86 1015.0
20260507020111 6 0 0.0 0.0 0.00 1.37 0.99 82 1014.6
20260507014607 6 0 0.0 0.0 0.00 1.75 0.99 80 1014.6
20260507013059 7 0 0.0 0.0 0.00 1.75 0.99 73 1014.5
20260507011603 8 0 0.0 0.0 0.00 1.75 0.99 67 1014.6
20260507010058 10 0 0.0 0.0 0.00 1.75 0.99 64 1014.5
20260507004557 10 0 0.0 1.6 0.00 2.13 0.99 61 1014.2
20260507003059 11 0 0.0 3.2 0.00 2.13 0.99 59 1013.8
20260507001558 11 303 0.0 6.4 0.00 2.13 0.99 58 1013.7
20260507000058 11 0 1.6 4.8 0.00 2.13 0.99 57 1013.7
20260506234605 11 0 0.0 6.4 0.00 2.46 0.99 58 1013.5
20260506233100 12 306 0.0 4.8 0.00 2.46 0.99 58 1013.6
20260506231601 12 293 0.0 4.8 0.00 2.46 0.99 55 1013.6
20260506230100 12 204 3.2 14.5 0.00 2.46 0.99 54 1013.8
20260506224600 12 300 1.6 8.0 0.00 2.90 0.99 53 1014.0
20260506223059 12 302 3.2 6.4 0.00 2.90 0.99 54 1014.0
20260506221557 12 309 1.6 9.7 0.00 2.90 0.99 55 1014.0
20260506220059 12 248 1.6 8.0 0.00 2.90 0.99 55 1014.2
20260506214557 12 314 1.6 9.7 0.00 2.95 0.99 52 1013.9
20260506213127 12 290 4.8 12.9 0.00 2.95 0.99 52 1013.7
20260506211620 12 285 3.2 12.9 0.00 2.95 0.99 49 1013.4
20260506204559 12 304 3.2 11.3 0.00 3.38 0.99 50 1013.4
20260506203102 12 291 3.2 11.3 0.00 3.38 0.99 52 1013.4
20260506201610 12 0 1.6 14.5 0.00 3.38 0.99 54 1013.3
20260506200101 12 306 3.2 11.3 0.00 3.38 0.99 51 1013.1
20260506194623 13 302 1.6 9.7 0.00 3.40 0.99 53 1013.2
20260506193057 13 307 1.6 11.3 0.00 3.40 0.99 51 1013.3
20260506191605 13 320 4.8 12.9 0.00 3.40 0.99 54 1013.3
20260506190059 13 308 4.8 12.9 0.00 3.40 0.99 51 1013.3
20260506184607 14 333 3.2 14.5 0.00 3.40 0.99 50 1013.1
20260506183104 14 308 3.2 9.7 0.00 3.40 0.99 52 1013.0
20260506181559 15 297 3.2 12.9 0.00 3.40 0.99 53 1013.1
20260506174555 14 310 4.8 12.9 0.00 3.40 0.99 49 1013.2
20260506173108 15 285 3.2 11.3 0.00 3.40 0.99 51 1013.3
20260506171600 14 288 1.6 14.5 0.00 3.40 0.99 55 1013.3
20260506170113 14 285 1.6 16.1 0.00 3.40 0.99 52 1013.2
20260506164601 14 287 1.6 11.3 0.00 3.40 0.99 60 1013.0
20260506163111 13 317 1.6 9.7 0.00 3.40 0.99 59 1013.3
20260506161603 13 305 1.6 8.0 0.00 3.40 0.99 59 1013.0
20260506160111 12 319 3.2 9.7 0.00 3.40 0.99 64 1013.2
20260506154605 12 306 1.6 16.1 0.00 3.40 0.99 64 1013.2
20260506153109 12 273 3.2 14.5 0.00 3.40 0.99 65 1012.8
20260506151609 11 308 1.6 9.7 0.00 3.40 0.99 68 1012.7
20260506150100 11 302 1.6 16.1 0.00 3.40 0.99 70 1012.5
20260506144607 10 296 1.6 9.7 0.00 3.40 0.99 73 1012.3
20260506143108 10 267 3.2 6.4 0.00 3.40 0.99 75 1012.4
20260506141600 8 311 1.6 8.0 0.00 3.40 0.99 79 1012.4
20260506140056 8 307 3.2 8.0 0.00 3.40 0.99 82 1012.3
20260506134557 7 299 1.6 8.0 0.00 3.40 0.99 86 1012.0
20260506133056 7 0 1.6 9.7 0.00 3.40 0.99 88 1011.7
20260506131600 7 304 1.6 9.7 0.00 3.40 0.99 89 1012.0
20260506124558 6 0 1.6 8.0 0.00 3.40 0.99 90 1011.6
20260506123100 6 304 1.6 4.8 0.00 3.40 0.99 91 1011.6
20260506121600 6 290 0.0 6.4 0.00 3.40 0.99 91 1011.3
20260506120059 6 304 0.0 4.8 0.00 3.40 0.99 91 1010.5
20260506114559 6 307 1.6 4.8 0.00 3.40 0.99 92 1010.4
20260506113059 6 315 0.0 6.4 0.00 3.40 0.99 92 1010.2
20260506111603 6 308 0.0 3.2 0.00 3.40 0.99 92 1010.1
20260506104602 6 307 1.6 6.4 0.00 3.45 0.99 92 1009.1
20260506103129 6 302 1.6 8.0 0.00 3.45 0.99 92 1009.6
20260506101603 6 0 0.0 8.0 0.00 3.45 0.99 93 1009.2
20260506100100 6 0 0.0 8.0 0.00 3.45 0.99 93 1009.1
20260506094606 6 312 0.0 6.4 0.00 3.58 0.99 93 1008.7
20260506093059 6 0 0.0 1.6 0.03 3.58 0.99 93 1008.1
20260506091606 6 0 0.0 4.8 0.05 3.58 0.99 93 1008.5
20260506090101 6 0 0.0 3.2 0.08 3.58 0.99 93 1008.3
20260506084617 6 0 0.0 8.0 0.10 3.58 0.99 93 1008.5
20260506083102 6 223 1.6 11.3 0.15 3.56 0.97 93 1008.5
20260506081608 6 278 4.8 17.7 0.13 3.53 0.94 93 1008.7
20260506073101 6 281 1.6 14.5 0.05 3.40 0.81 93 1008.3
20260506071600 6 309 4.8 14.5 0.23 3.40 0.81 93 1007.9
20260506061603 6 304 1.6 6.4 0.36 3.17 0.58 93 1008.1
20260506050110 7 321 1.6 9.7 0.15 2.74 0.15 93 1008.1
20260506044558 8 320 0.0 11.3 0.15 2.74 0.15 93 1008.0
20260506043106 8 327 1.6 8.0 0.10 2.67 0.10 93 1008.3
20260506041558 8 83 1.6 17.7 0.03 2.62 0.03 93 1008.2
20260506040107 8 243 0.0 8.0 0.00 2.59 0.00 93 1008.0
20260506034605 8 0 0.0 8.0 0.10 2.59 2.59 93 1008.0
20260506033059 8 319 0.0 8.0 0.20 2.59 2.59 93 1008.1
20260506031600 8 329 0.0 4.8 0.33 2.59 2.59 93 1008.1
20260506030058 8 122 0.0 8.0 0.38 2.59 2.59 92 1008.3
20260506024559 8 306 1.6 4.8 0.33 2.49 2.49 92 1008.9